Index of /redhat/linux/enterprise/7Server/en/RHSCL/SRPMS

[ICO]NameLast modifiedSize

[DIR]Parent Directory  -
[   ]gperftools-2.4-7.el7.src.rpm20-Oct-2015 22:45 1.3M
[   ]libunwind-1.1-5.el7.src.rpm20-Oct-2015 03:00 1.1M
[   ]rh-git29-git-2.9.3-6.el7.src.rpm26-Oct-2018 06:42 5.3M
[   ]rh-git29-git-2.9.3-8.el7.src.rpm31-Oct-2018 04:55 5.3M
[   ]rh-perl524-perl-B-Debug-1.23-367.el7.src.rpm27-Oct-2016 14:48 23K
[   ]rh-perl524-perl-CPAN-2.11-368.el7.src.rpm27-Oct-2016 14:48 793K
[   ]rh-perl524-perl-CPAN-Meta-2.150005-366.el7.src.rpm27-Oct-2016 14:48 117K
[   ]rh-perl524-perl-CPAN-Meta-YAML-0.018-368.el7.src.rpm27-Oct-2016 14:48 63K
[   ]rh-perl524-perl-Carp-1.40-366.el7.src.rpm27-Oct-2016 14:48 31K
[   ]rh-perl524-perl-Compress-Raw-Bzip2-2.069-367.el7.src.rpm27-Oct-2016 14:48 149K
[   ]rh-perl524-perl-Compress-Raw-Zlib-2.069-367.el7.src.rpm27-Oct-2016 14:48 250K
[   ]rh-perl524-perl-Env-1.04-366.el7.src.rpm27-Oct-2016 14:48 18K
[   ]rh-perl524-perl-Exporter-5.72-367.el7.src.rpm27-Oct-2016 14:48 25K
[   ]rh-perl524-perl-ExtUtils-CBuilder-0.280225-366.el7.src.rpm27-Oct-2016 14:48 50K
[   ]rh-perl524-perl-ExtUtils-Install-2.04-367.el7.src.rpm27-Oct-2016 14:48 73K
[   ]rh-perl524-perl-ExtUtils-Manifest-1.70-366.el7.src.rpm27-Oct-2016 16:45 44K
[   ]rh-perl524-perl-File-Path-2.12-366.el7.src.rpm27-Oct-2016 16:45 34K
[   ]rh-perl524-perl-File-Temp-0.23.04-366.el7.src.rpm27-Oct-2016 16:45 66K
[   ]rh-perl524-perl-Filter-1.55-367.el7.src.rpm27-Oct-2016 16:45 97K
[   ]rh-perl524-perl-Filter-Simple-0.92-366.el7.src.rpm27-Oct-2016 16:45 25K
[   ]rh-perl524-perl-MIME-Base64-3.15-366.el7.src.rpm27-Oct-2016 16:45 23K
[   ]rh-perl524-perl-Module-Load-0.32-366.el7.src.rpm27-Oct-2016 16:45 15K
[   ]rh-perl524-perl-Module-Metadata-1.000031-366.el7.src.rpm27-Oct-2016 16:45 62K
[   ]rh-perl524-perl-Params-Check-0.38-366.el7.src.rpm27-Oct-2016 16:45 18K
[   ]rh-perl524-perl-PerlIO-via-QuotedPrint-0.08-366.el7.src.rpm27-Oct-2016 16:45 8.8K
[   ]rh-perl524-perl-Pod-Escapes-1.07-366.el7.src.rpm27-Oct-2016 16:45 16K
[   ]rh-perl524-perl-Pod-Parser-1.63-367.el7.src.rpm27-Oct-2016 16:45 86K
[   ]rh-perl524-perl-Pod-Simple-3.32-366.el7.src.rpm27-Oct-2016 16:45 281K
[   ]rh-perl524-perl-Term-Cap-1.17-366.el7.src.rpm27-Oct-2016 16:45 17K
[   ]rh-perl524-perl-Text-Balanced-2.03-366.el7.src.rpm27-Oct-2016 16:45 53K
[   ]rh-perl524-perl-Text-ParseWords-3.30-366.el7.src.rpm27-Oct-2016 16:45 14K
[   ]rh-perl524-perl-Text-Tabs+Wrap-2013.0523-366.el7.src.rpm27-Oct-2016 16:45 25K
[   ]rh-perl524-perl-Time-Local-1.2300-366.el7.src.rpm27-Oct-2016 16:45 26K
[   ]rh-perl524-perl-Unicode-Collate-1.14-366.el7.src.rpm27-Oct-2016 16:45 832K
[   ]rh-perl524-perl-Unicode-Normalize-1.25-366.el7.src.rpm27-Oct-2016 16:46 45K
[   ]rh-perl524-perl-autodie-2.29-368.el7.src.rpm27-Oct-2016 16:46 100K
[   ]rh-perl524-perl-constant-1.33-368.el7.src.rpm27-Oct-2016 16:46 27K
[   ]rh-perl524-perl-experimental-0.016-366.el7.src.rpm27-Oct-2016 16:46 19K
[   ]rh-perl524-perl-parent-0.234-366.el7.src.rpm27-Oct-2016 16:46 19K
[   ]rh-perl524-perl-podlators-4.07-366.el7.src.rpm27-Oct-2016 16:46 130K